Change the Weather History Date:

Tuesday, June 10, 2014

  Actual Average Record
Temperature  
Mean Temperature 64 °F 70 °F  
Max Temperature 67 °F 81 °F 99 °F (1933)
Min Temperature 60 °F 59 °F 41 °F (1966)
Degree Days  
Heating Degree Days 1 1  
Month to date heating degree days 2 13  
Since 1 June heating degree days 2 13  
Since 1 July heating degree days 7315 6197  
Cooling Degree Days 0 6  
Month to date cooling degree days 44 49  
Year to date cooling degree days 149 125  
Since 1 June cooling degree days 44 49  
Growing Degree Days 13 (Base 50)    
Moisture  
Dew Point 58 °F    
Average Humidity 80    
Maximum Humidity 93    
Minimum Humidity 67    
Precipitation  
Precipitation 0.12 in 0.14 in 1.69 in (1905)
Month to date precipitation 1.69 1.49  
Year to date precipitation 13.25 15.35  
Snow  
Snow 0.00 in 0.00 in - ()
Month to date snowfall 0.0 0.0  
Since 1 June snowfall 0.0 0.0  
Since 1 July snowfall 65.1 31.6  
Snow Depth 0.00 in    
Sea Level Pressure  
Sea Level Pressure 29.83 in    
Wind  
Wind Speed 10 mph (NE)    
Max Wind Speed 22 mph    
Max Gust Speed 28 mph    
Visibility 7 miles    
Events Rain    
T = Trace of Precipitation, MM = Missing Value Source: NWS Daily Summary

Daily Weather History Graph

Daily Weather History Graph

Search for Another Location

Airport or City:

Trip Planner

Search our weather history database for the weather conditions in past years. The results will help you decide how hot, cold, wet, or windy it might be!

Date:

Astronomy

Jun. 10, 2014 Rise Set
Actual Time 5:28 AM CDT 8:35 PM CDT
Civil Twilight 4:54 AM CDT 9:08 PM CDT
Nautical Twilight 4:11 AM CDT 9:52 PM CDT
Astronomical Twilight 3:19 AM CDT 10:43 PM CDT
Moon 5:59 PM CDT (6/10) 3:35 AM CDT (6/10)
Length of Visible Light 16h 14m
Length of Day
15h 07m
Waxing Gibbous, 92% of the Moon is Illuminated
Jun 10
Waxing Gibbous
Jun 12
Full
Jun 19
Last Quarter
Jun 27
New
Jul 5
First Quarter

Hourly Weather History & Observations

Time (CDT) Temp. Dew Point Humidity Pressure Visibility Wind Dir Wind Speed Gust Speed Precip Events Conditions
12:52 AM 66.0 °F 61.0 °F 84% 29.86 in 10.0 mi East 8.1 mph - N/A   Clear
1:52 AM 66.9 °F 57.9 °F 73% 29.86 in 9.0 mi East 11.5 mph - N/A   Clear
2:52 AM 66.0 °F 57.0 °F 73% 29.85 in 8.0 mi ENE 9.2 mph - N/A   Clear
3:52 AM 64.0 °F 53.1 °F 67% 29.85 in 10.0 mi ENE 9.2 mph - N/A   Clear
4:52 AM 63.0 °F 51.1 °F 65% 29.85 in 10.0 mi ENE 10.4 mph - N/A   Scattered Clouds
5:52 AM 62.1 °F 52.0 °F 70% 29.85 in 10.0 mi East 9.2 mph - 0.00 in Rain Light Rain
6:52 AM 60.8 °F 53.6 °F 77% 29.87 in 8.0 mi East 5.8 mph - N/A Rain Light Rain
7:52 AM 60.1 °F 54.0 °F 80% 29.86 in 10.0 mi NE 4.6 mph - 0.02 in Rain Light Rain
8:52 AM 60.8 °F 55.4 °F 82% 29.87 in 10.0 mi NE 6.9 mph - N/A   Overcast
9:52 AM 62.6 °F 57.2 °F 82% 29.88 in 10.0 mi East 8.1 mph - N/A Rain Light Rain
10:52 AM 62.1 °F 57.9 °F 86% 29.87 in 8.0 mi ENE 9.2 mph - 0.01 in   Overcast
11:52 AM 63.0 °F 59.0 °F 87% 29.86 in 9.0 mi ENE 11.5 mph - 0.01 in   Overcast
12:52 PM 66.0 °F 61.0 °F 84% 29.85 in 5.0 mi NE 10.4 mph - 0.00 in Rain Light Rain
1:52 PM 66.0 °F 60.1 °F 81% 29.84 in 10.0 mi ENE 13.8 mph - 0.00 in   Overcast
2:52 PM 66.2 °F 59.0 °F 78% 29.83 in 10.0 mi NE 11.5 mph - N/A   Overcast
3:47 PM 66.2 °F 59.0 °F 78% 29.82 in 10.0 mi NE 11.5 mph - N/A   Overcast
3:52 PM 66.2 °F 59.0 °F 78% 29.82 in 10.0 mi NE 12.7 mph - N/A   Overcast
4:37 PM 66.2 °F 57.2 °F 73% 29.81 in 10.0 mi NE 12.7 mph - N/A   Overcast
4:47 PM 66.2 °F 57.2 °F 73% 29.81 in 9.0 mi NE 11.5 mph - N/A   Overcast
4:52 PM 66.0 °F 59.0 °F 78% 29.81 in 8.0 mi ENE 12.7 mph - N/A   Overcast
5:52 PM 64.4 °F 60.8 °F 88% 29.81 in 5.0 mi ENE 18.4 mph 23.0 mph N/A   Haze
6:52 PM 63.0 °F 60.1 °F 90% 29.80 in 2.0 mi ENE 10.4 mph - N/A   Overcast
7:37 PM 62.6 °F 60.8 °F 94% 29.80 in 1.5 mi NE 9.2 mph - 0.01 in Rain Light Rain
7:52 PM 63.0 °F 60.1 °F 90% 29.79 in 2.0 mi NE 11.5 mph - 0.02 in Rain Light Rain
8:01 PM 62.6 °F 60.8 °F 94% 29.80 in 1.8 mi NE 9.2 mph - 0.00 in   Overcast
8:04 PM 62.6 °F 60.8 °F 94% 29.80 in 2.0 mi NE 15.0 mph 18.4 mph 0.00 in   Overcast
8:16 PM 62.6 °F 60.8 °F 94% 29.80 in 2.0 mi NE 10.4 mph - 0.00 in   Overcast
8:52 PM 63.0 °F 59.0 °F 87% 29.79 in 3.0 mi NE 10.4 mph 19.6 mph 0.01 in   Overcast
9:09 PM 62.6 °F 59.0 °F 88% 29.79 in 5.0 mi NE 11.5 mph - N/A   Overcast
9:52 PM 62.1 °F 59.0 °F 90% 29.80 in 6.0 mi ENE 10.4 mph - 0.00 in   Overcast
10:52 PM 62.1 °F 59.0 °F 90% 29.79 in 5.0 mi NE 10.4 mph 19.6 mph N/A   Overcast
11:52 PM 62.1 °F 59.0 °F 90% 29.78 in 3.0 mi NNE 10.4 mph - 0.01 in Rain Light Rain